DW4248 Weather Reports


Display with metric or nautical units.
time (UTC)temp
F
wind
direction
speed
MPH
gust
MPH
rain 1hr
in
rain 24hr
in
rain mn
in
humidity
%
barometer
mb
20260503231803 77 145 2.0 9.0 0.00 0.00 0.00 37 1008.7
20260503230903 78 168 2.0 7.0 0.00 0.00 0.00 36 1008.7
20260503230003 78 154 2.0 8.0 0.00 0.00 0.00 36 1008.7
20260503225403 78 145 2.0 8.0 0.00 0.00 0.00 36 1008.9
20260503224503 78 305 3.0 11.0 0.00 0.00 0.00 35 1009.0
20260503223603 78 195 3.0 11.0 0.00 0.00 0.00 35 1009.0
20260503222724 78 174 3.0 9.0 0.00 0.00 0.00 34 1009.0
20260503221803 78 316 3.0 10.0 0.00 0.00 0.00 34 1009.1
20260503220924 78 320 3.0 14.0 0.00 0.00 0.00 35 1009.2
20260503220003 77 78 3.0 9.0 0.00 0.00 0.00 34 1009.3
20260503215424 78 14 3.0 11.0 0.00 0.00 0.00 34 1009.4
20260503214503 77 155 3.0 13.0 0.00 0.00 0.00 34 1009.5
20260503213603 77 158 4.0 13.0 0.00 0.00 0.00 33 1009.5
20260503212703 77 302 3.0 10.0 0.00 0.00 0.00 33 1009.6
20260503211803 77 164 3.0 8.0 0.00 0.00 0.00 34 1009.5
20260503210924 76 144 4.0 12.0 0.00 0.00 0.00 35 1009.5
20260503210003 76 142 4.0 18.0 0.00 0.00 0.00 33 1009.8
20260503205403 77 151 3.0 8.0 0.00 0.00 0.00 34 1009.9
20260503204524 77 205 3.0 11.0 0.00 0.00 0.00 34 1010.0
20260503203603 77 139 2.0 11.0 0.00 0.00 0.00 34 1010.1
20260503202703 76 144 5.0 13.0 0.00 0.00 0.00 36 1010.3
20260503201824 76 147 4.0 13.0 0.00 0.00 0.00 35 1010.6
20260503200903 76 149 4.0 10.0 0.00 0.00 0.00 36 1010.7
20260503200003 75 141 4.0 11.0 0.00 0.00 0.00 37 1010.9
20260503195424 75 139 3.0 8.0 0.00 0.00 0.00 36 1011.1
20260503194525 75 145 5.0 12.0 0.00 0.00 0.00 38 1011.4
20260503193603 74 147 3.0 10.0 0.00 0.00 0.00 37 1011.6
20260503192703 73 141 5.0 13.0 0.00 0.00 0.00 39 1011.8
20260503191803 73 143 5.0 15.0 0.00 0.00 0.00 38 1012.0
20260503190903 73 162 3.0 12.0 0.00 0.00 0.00 37 1012.5
20260503190003 73 144 4.0 12.0 0.00 0.00 0.00 38 1012.5
20260503185403 72 147 4.0 12.0 0.00 0.00 0.00 37 1012.6
20260503184524 72 147 3.0 12.0 0.00 0.00 0.00 40 1012.8
20260503183603 71 146 3.0 9.0 0.00 0.00 0.00 38 1013.1
20260503182703 71 147 4.0 12.0 0.00 0.00 0.00 41 1013.3
20260503181803 70 142 4.0 11.0 0.00 0.00 0.00 38 1013.6
20260503180903 70 153 2.0 11.0 0.00 0.00 0.00 42 1013.9
20260503180003 69 142 4.0 10.0 0.00 0.00 0.00 42 1014.3
20260503175403 69 146 4.0 12.0 0.00 0.00 0.00 39 1014.6
20260503174503 69 141 4.0 10.0 0.00 0.00 0.00 40 1014.8
20260503173603 68 152 3.0 9.0 0.00 0.00 0.00 41 1015.1
20260503172703 67 147 3.0 11.0 0.00 0.00 0.00 45 1015.5
20260503171803 67 149 3.0 11.0 0.00 0.00 0.00 42 1015.9
20260503170903 66 139 4.0 13.0 0.00 0.00 0.00 41 1015.9
20260503150924 59 145 2.0 6.0 0.00 0.00 0.00 58 1017.7
20260503130903 50 138 2.0 8.0 0.00 0.00 0.00 73 1018.4
20260503080903 45 134 0.0 1.0 0.00 0.00 0.00 85 1018.4
20260503072703 45 140 0.0 1.0 0.00 0.00 0.00 84 1018.4
20260503071803 45 140 0.0 1.0 0.00 0.00 0.00 84 1018.5
20260503070903 45 140 0.0 1.0 0.00 0.00 0.00 84 1018.6
20260503054524 44 0 0.0 0.0 0.00 0.00 0.00 88 1019.1
20260503053603 44 0 0.0 0.0 0.00 0.00 0.00 87 1019.1
20260503052703 45 0 0.0 0.0 0.00 0.00 0.00 87 1019.1
20260503051803 45 0 0.0 0.0 0.00 0.00 0.00 87 1019.2
20260503050903 45 0 0.0 0.0 0.00 0.00 0.00 87 1019.2
20260503050005 45 0 0.0 0.0 0.00 0.00 0.00 86 1019.2
20260503045403 45 0 0.0 0.0 0.00 0.00 0.00 86 1019.2
20260503044503 46 0 0.0 0.0 0.00 0.00 0.00 85 1019.1
20260503043603 46 0 0.0 0.0 0.00 0.00 0.00 84 1019.1
20260503042724 46 0 0.0 0.0 0.00 0.00 0.00 83 1019.1
20260503041803 46 0 0.0 0.0 0.00 0.00 0.00 83 1019.1
20260503040903 46 0 0.0 0.0 0.00 0.00 0.00 83 1019.1
20260503040003 46 0 0.0 0.0 0.00 0.00 0.00 83 1019.1
20260503035403 46 0 0.0 0.0 0.00 0.00 0.00 82 1019.1
20260503034503 47 0 0.0 0.0 0.00 0.00 0.00 81 1019.1
20260503033603 47 0 0.0 0.0 0.00 0.00 0.00 79 1019.1
20260503032703 48 0 0.0 0.0 0.00 0.00 0.00 78 1019.1
20260503031824 48 0 0.0 0.0 0.00 0.00 0.00 77 1019.1
20260503030924 48 0 0.0 0.0 0.00 0.00 0.00 76 1019.1
20260503030003 49 0 0.0 0.0 0.00 0.00 0.00 74 1019.2
20260503025403 49 0 0.0 0.0 0.00 0.00 0.00 74 1019.1
20260503024503 49 0 0.0 0.0 0.00 0.00 0.00 74 1019.1
20260503023603 49 0 0.0 0.0 0.00 0.00 0.00 72 1019.1
20260503022703 50 0 0.0 0.0 0.00 0.00 0.00 71 1019.1
20260503021824 50 0 0.0 0.0 0.00 0.00 0.00 70 1019.0
20260503020903 51 0 0.0 0.0 0.00 0.00 0.00 69 1019.0
20260503020004 51 0 0.0 0.0 0.00 0.00 0.00 67 1018.9
20260503015403 51 0 0.0 0.0 0.00 0.00 0.00 65 1018.9
20260503014503 52 0 0.0 0.0 0.00 0.00 0.00 66 1018.8
20260503013603 53 0 0.0 0.0 0.00 0.00 0.00 64 1018.6
20260503012703 53 0 0.0 0.0 0.00 0.00 0.00 61 1018.6
20260503011824 54 0 0.0 0.0 0.00 0.00 0.00 59 1018.6
20260503010924 55 0 0.0 0.0 0.00 0.00 0.00 58 1018.5
20260503010024 56 0 0.0 0.0 0.00 0.00 0.00 54 1018.5
20260503005424 56 0 0.0 0.0 0.00 0.00 0.00 54 1018.4
20260503004503 58 0 0.0 0.0 0.00 0.00 0.00 54 1018.4
20260503003603 58 0 0.0 0.0 0.00 0.00 0.00 49 1018.4
20260503002724 59 0 0.0 1.0 0.00 0.00 0.00 47 1018.4
20260503001803 59 314 0.0 1.0 0.00 0.00 0.00 46 1018.4
20260503000924 60 314 0.0 1.0 0.00 0.00 0.00 45 1018.3
20260503000003 60 319 1.0 3.0 0.00 0.00 0.00 45 1018.3
20260502235403 60 322 1.0 2.0 0.00 0.00 0.00 43 1018.3
20260502234503 60 320 1.0 4.0 0.00 0.00 0.00 43 1018.3
20260502233624 60 327 1.0 5.0 0.00 0.00 0.00 43 1018.2
20260502232703 60 328 0.0 2.0 0.00 0.00 0.00 45 1018.3